Weather History for Milton, FL

Change the Weather History Date:

Sunday, October 13, 2013

  Actual Average (KNSE) Record (KNSE)
Temperature  
Mean Temperature 74 °F -  
Max Temperature 87 °F 77 °F 88 °F (1997)
Min Temperature 63 °F 57 °F 50 °F (2000)
Cooling Degree Days 10    
Growing Degree Days 24 (Base 50)    
Moisture  
Dew Point 61 °F    
Average Humidity 68    
Maximum Humidity 93    
Minimum Humidity 37    
Precipitation  
Precipitation 0.00 in - - ()
Sea Level Pressure  
Sea Level Pressure 30.07 in    
Wind  
Wind Speed 4 mph (NNE)    
Max Wind Speed 10 mph    
Max Gust Speed 17 mph    
Visibility 10 miles    
Events      
Averages and records for this station are not official NWS values.
T = Trace of Precipitation, MM = Missing Value Source: NWS Daily Summary

Daily Weather History Graph

Daily Weather History Graph

Search for Another Location

Airport:

Trip Planner

Search our weather history database for the weather conditions in past years. The results will help you decide how hot, cold, wet, or windy it might be!

Date:

Astronomy

Oct. 13, 2013 Rise Set
Actual Time 6:49 AM CDT 6:18 PM CDT
Civil Twilight 6:25 AM CDT 6:42 PM CDT
Nautical Twilight 5:57 AM CDT 7:10 PM CDT
Astronomical Twilight 5:29 AM CDT 7:38 PM CDT
Moon 2:50 PM CDT (10/13) 1:20 AM CDT (10/13)
Length of Visible Light 12h 17m
Length of Day
11h 29m
Waxing Gibbous, 69% of the Moon is Illuminated
Oct 13
Waxing Gibbous
Oct 18
Full
Oct 26
Last Quarter
Nov 3
New
Nov 9
First Quarter

Hourly Weather History & Observations

Time (CDT) Temp. Heat Index Dew Point Humidity Pressure Visibility Wind Dir Wind Speed Gust Speed Precip Events Conditions
12:56 AM 64.9 °F - 62.1 °F 90% 30.04 in 10.0 mi NNW 3.5 mph - N/A   Clear
1:56 AM 64.9 °F - 62.1 °F 90% 30.04 in 10.0 mi Calm Calm - N/A   Clear
2:56 AM 66.0 °F - 64.0 °F 93% 30.04 in 8.0 mi Calm Calm - N/A   Clear
3:56 AM 64.9 °F - 63.0 °F 93% 30.04 in 10.0 mi NNW 3.5 mph - N/A   Clear
4:56 AM 66.0 °F - 62.1 °F 87% 30.05 in 10.0 mi Calm Calm - N/A   Clear
5:56 AM 66.0 °F - 62.1 °F 87% 30.07 in 10.0 mi Calm Calm - N/A   Clear
6:56 AM 63.0 °F - 60.1 °F 90% 30.09 in 10.0 mi North 3.5 mph - N/A   Clear
7:56 AM 69.1 °F - 64.0 °F 84% 30.10 in 10.0 mi Calm Calm - N/A   Clear
8:56 AM 75.9 °F - 62.1 °F 62% 30.12 in 10.0 mi NNE 4.6 mph - N/A   Clear
9:56 AM 80.1 °F 81.1 °F 61.0 °F 52% 30.13 in 10.0 mi NE 5.8 mph - N/A   Clear
10:56 AM 82.0 °F 82.0 °F 57.9 °F 44% 30.12 in 10.0 mi NNE 8.1 mph - N/A   Clear
11:56 AM 84.9 °F 84.2 °F 57.9 °F 40% 30.11 in 10.0 mi NNE 8.1 mph - N/A   Clear
12:56 PM 84.9 °F 83.9 °F 57.0 °F 38% 30.09 in 10.0 mi NE 9.2 mph 17.3 mph N/A   Clear
1:56 PM 86.0 °F 84.9 °F 57.0 °F 37% 30.06 in 10.0 mi NNE 10.4 mph 17.3 mph N/A   Clear
2:56 PM 84.9 °F 84.4 °F 59.0 °F 41% 30.04 in 10.0 mi NNE 6.9 mph - N/A   Clear
3:56 PM 84.9 °F 84.4 °F 59.0 °F 41% 30.04 in 10.0 mi NE 8.1 mph - N/A   Clear
4:56 PM 84.0 °F 84.0 °F 60.1 °F 44% 30.04 in 10.0 mi NNE 8.1 mph - N/A   Mostly Cloudy
5:56 PM 80.1 °F 81.1 °F 61.0 °F 52% 30.04 in 10.0 mi North 3.5 mph - N/A   Mostly Cloudy
6:56 PM 73.0 °F - 63.0 °F 71% 30.06 in 10.0 mi North 3.5 mph - N/A   Mostly Cloudy
7:56 PM 72.0 °F - 63.0 °F 73% 30.08 in 10.0 mi North 4.6 mph - N/A   Mostly Cloudy
8:56 PM 73.0 °F - 62.1 °F 68% 30.08 in 10.0 mi North 4.6 mph - N/A   Mostly Cloudy
9:56 PM 66.9 °F - 63.0 °F 87% 30.09 in 10.0 mi North 3.5 mph - N/A   Mostly Cloudy
10:56 PM 68.0 °F - 62.1 °F 81% 30.08 in 10.0 mi North 4.6 mph - N/A   Clear
11:56 PM 69.1 °F - 62.1 °F 78% 30.06 in 10.0 mi North 5.8 mph - N/A   Clear